Terug naar catalogus

ARIANE 1 DEB

LostGTO
NORAD 29017·DEBRIS·🇫🇷 France

Gelanceerd Dec 24, 1979 vanaf Guiana Space Centre

Loading…

TLE

VerouderdSource: Space-Track

Epoch: Sep 1, 2022, 11:52 UTC

1 29017U 79104Z   22244.49463622  .00000147  00000-0  52066-2 0  9993
2 29017  16.0892 284.7509 7289507  27.1013   1.1968  1.96402857128439

Volg ARIANE 1 DEB in realtime met AllMySat

Download on the App Store